{"data":{"norad_id":68742,"epoch":"2026-09-19T21:38:32.692992Z","epoch_age_seconds":93031,"freshness":"FRESH","line1":"1 68742U 26082Q   26262.90176728  .00010705  00000+0  33338-3 0  9998","line2":"2 68742  97.2856 125.0600 0001979  86.3286 273.8183 15.33451092 24213","mean_motion":15.33451092,"eccentricity":0.0001979,"inclination_deg":97.2856,"raan_deg":125.06,"arg_perigee_deg":86.3286,"mean_anomaly_deg":273.8183,"bstar":0.00033338,"rev_number":2421,"period_min":93.905831592052,"perigee_km":464.17068831272,"apogee_km":466.87940975173,"semimajor_km":6843.6620490322,"source":"CELESTRAK","updated_at":"2026-09-20T09:00:43.993861Z"}}